Regional Weather Roundup
Issued by NWS Cleveland, OH

Home | Current Version | Previous Version | Graphics & Text | Print | Product List | Glossary On
Versions: 1 2 3 4 5 6 7 8 9 10 11 12 13 14 15 16 17 18 19 20 21 22 23 24 25 26 27 28 29 30 31 32 33 34 35 36 37 38 39 40 41 42 43 44 45 46 47 48 49 50
293
ASUS41 KCLE 030012
RWRCLE
OHIO REGIONAL WEATHER ROUNDUP
NATIONAL WEATHER SERVICE WILMINGTON, OH
800 PM EDT MON MAY 02 2016

NOTE: "FAIR" INDICATES FEW OR NO CLOUDS BELOW 12,000 FEET WITH NO
SIGNIFICANT WEATHER AND/OR OBSTRUCTIONS TO VISIBILITY.

OHZ001>008-015>018-024>027-034-035-043-044-030100-
   NORTHWEST OHIO

CITY           SKY/WX    TMP DP  RH WIND       PRES   REMARKS
DEFIANCE       CLOUDY    51  46  83 NE8       29.99F
FINDLAY        CLOUDY    52  44  74 NE10      29.97S
TOLEDO EXPRESS CLOUDY    51  45  79 E7        29.99R
TOLEDO EXEC    CLOUDY    51  44  77 NE6       30.00S
LIMA           CLOUDY    52  47  83 NE6       29.97R
$$

OHZ009>014-019>023-028>033-038-089-030100-
   NORTHEAST OHIO

CITY           SKY/WX    TMP DP  RH WIND       PRES   REMARKS
CLE-HOPKINS    MOCLDY    49  43  80 N8        30.01S
CLE-LAKEFRONT  FAIR      48  44  86 N8        29.99S
CUY CO. ARPT   CLOUDY    48  45  87 NE7       29.99S
LORAIN-ELYRIA  MOCLDY    48  41  76 NE7       29.99S
ASHTABULA      FAIR      47  42  83 CALM      29.99S
AKRON-CANTON   CLOUDY    50  44  80 N8        29.95F
WOOSTER        CLOUDY    50  45  83 N7        29.96F
MANSFIELD      CLOUDY    49  44  83 N8        29.97R
YOUNGSTOWN     CLOUDY    48  43  82 N7        29.95F
$$

OHZ042-051>053-060>062-070>072-077>081-030100-
  SOUTHWEST OHIO

CITY           SKY/WX    TMP DP  RH WIND       PRES   REMARKS
CINC-COVINGTON CLOUDY    61  52  72 W9        29.93R
CINC-LUNKEN    MOCLDY    62  54  74 N8        29.92R
HAMILTON       CLOUDY    60  53  77 N7        29.93F
DAYTON         CLOUDY    54  50  86 NE8       29.96R
WRIGHT-PAT AFB CLOUDY    55  53  90 N8        29.95R
DAYTON GENERAL CLOUDY    57  49  74 NE9       29.93R
WILMINGTON     CLOUDY    56  52  86 NE12      29.93R
$$

OHZ036-037-039>041-045>050-054>059-063>069-073>076-082>088-030100-
  CENTRAL AND SOUTHEAST OHIO

CITY           SKY/WX    TMP DP  RH WIND       PRES   REMARKS
COLUMBUS       CLOUDY    55  50  83 NE9       29.93R
OSU AIRPORT    CLOUDY    54  49  83 N8        29.94R
BOLTON FIELD   CLOUDY    55  50  86 N9        29.94S
RICKENBACK AFB CLOUDY    57  51  81 N10       29.93R
NEWARK         MOCLDY    56  48  74 NE8       29.93S
MARION         CLOUDY    51  46  83 N13       29.96F
LANCASTER      MOCLDY    58  52  80 N12       29.92S
ZANESVILLE     CLOUDY    57  49  74 VRB5      29.93S
NEW PHILLY     CLOUDY    54  47  77 N6        29.95F
$$




USA.gov is the U.S. government's official web portal to all federal, state and local government web resources and services.